Погода в Приаргунске

Погода в Приаргунске : погода сейчас, прогноз погоды и архив. Всё, что Вы хотите узнать о погоде в Приаргунске!

Хотите узнать прогноз погоды в Приаргунске? Тогда Вам сюда: Погода в Приаргунске

Поиск расширенной информации на нашем сайте:

Другие новости

Новости СМИ2

Главная страница сайта

Новости сайта

03.07.2017

Напоминаем, что на нашем специализированном сайте Метеоцентр.Азия вы можете получить высокодетализированные автоматические прогнозы погоды по пунктам России, СНГ и мира в авиационном формате (включающие направление и скорость ветра, видимость, явления погоды, количество и форму облачности, нижнюю и верхнюю границу облачности).

Рекомендуем: матрасы Поролоновые Спб

Погода в Приаргунске - сегодня

Время (UTC), дата Ветер
(°,м/с) 
Видим.   Явления Облачность Т
(°С)
Тd
(°С)
f(%) Тe
(°С)
Pmin
(гПа)
dP
(гПа)
Po
(мм)
O2
(г/м3)
Тmin Tmax R s Состояние
почвы
12 18.02.18 090 (В) 20000 м    ясно 
-24.6 -27.7 75 -25  1029.6  0.6  719  320    -15       
15 18.02.18 220 (ЮЗ) 20000 м    ясно 
-32 -35.7 70 -36  1032.2  0.3  719  330           
18 18.02.18 140 (ЮВ) 20000 м    ясно 
-30.5 -34.2 70 -31  1031  -0.7  719  328           
21 18.02.18 160 (Ю) 20000 м    ясно 
-31.7 -35.4 70 -33  1030.2  -1  718  329           
03 19.02.18 140 (ЮВ) 20000 м    3/3 2000 м средняя 
[Ac lent]
-19.8 -23.5 72 -20  1027.3  719  314           
09 19.02.18 320 (СЗ) 20000 м    ясно 
-14 -24.1 42 -19  1024.2  0.2  717  306           
15 19.02.18 130 (ЮВ) 20000 м    ясно 
-27.2 -31.3 68 -31  1029.5  0.2  719  323           
18 19.02.18 150 (ЮВ) 20000 м    4/4 2000 м средняя 
[Ac trans]
-30 -34.2 67 -31  1029.6  -0.7  718  327           
21 19.02.18 090 (В) 20000 м    3/3 2000 м средняя 
[Ac trans]
-31.6 -35.2 70 -32  1029.8  -0.3  718  329           
00 20.02.18 100 (В) 20000 м    3/3 2000 м средняя 
[Ac lent]
-32.3 -36.2 68 -33  1030.6  0.5  718  330  -33.2      равномерный
сухой снег
100% 
03 20.02.18 150 (ЮВ) 20000 м    3/3 2000 м средняя 
[Ac lent]
-20.3 -26.6 57 -21  1027.4  0.4  719  314           
06 20.02.18 240 (ЮЗ) 20000 м    3/3 2000 м средняя 
[Ac trans]
-12.1 -22.1 43 -14  1023.3  -1.7  717  304           
09 20.02.18 140 (ЮВ) 20000 м    3/0 верхняя 
[Ci fib]
-14.8 -20.6 61 -18  1023.4  -0.6  717  307           
12 20.02.18 350 (С) 20000 м    ясно 
-22.4 -25.5 76 -23  1025.8  0.2  717  316    -11.2       
15 20.02.18 100 (В) 20000 м    ясно 
-26.6 -29.7 75 -30  1026  -0.9  716  322           
18 20.02.18 010 (С) 20000 м    ясно 
-25.9 -29 75 -29  1023.9  -1.7  715  320           
21 20.02.18 070 (В) 20000 м    10/10 2000 м 
[Ns]
-23.9 -26.9 76 -27  1021.1  -2  713  317           
00 21.02.18 тихо ()   20000 м  {снег}  8/5 2000 м средняя, верхняя 
[Ac lent|Ci fib]
-25.8 -29 75 -26  1020.4  -1.2  713  319  -27.9    0.2  равномерный
сухой снег
100% 
03 21.02.18 140 (ЮВ) 20000 м    ясно 
-17.1 -22.6 62 -17  1017.2  -0.6  712  308           
06 21.02.18 190 (Ю) 20000 м    9/0 верхняя 
[Cs]
-11 -19.1 51 -13  1013.9  -1.6  711  300           
12 21.02.18 320 (СЗ) 20000 м    3/3 2000 м средняя 
[Ac trans]
-18.7 -27.6 45 -23  1018  0.9  712  310    -10.6       
15 21.02.18 тихо ()   20000 м    ясно 
-24.8 -29.5 65 -25  1020  0.3  712  317           
18 21.02.18 150 (ЮВ) 20000 м    ясно 
-29.7 -33.2 72 -33  1021.7  0.2  713  324           
21 21.02.18 140 (ЮВ) 20000 м    ясно 
-33.8 -37.7 68 -35  1022.9  0.1  713  330           
03 22.02.18 150 (ЮВ) 20000 м    ясно 
-22 -27.3 62 -22  1020.5  0.2  713  314           
Время (UTC), дата Ветер
(°,м/с) 
Видим.   Явления Облачность Т
(°С)
Тd
(°С)
f(%) Тe
(°С)
Pmin
(гПа)
dP
(гПа)
Po
(мм)
O2
(г/м3)
Тmin Tmax R s Состояние
почвы

Для получения пояснительной информации подведите курсор к названию столбца.

ПОГОДА в Приаргунске - архив

Всё, что Вы хотите узнать о погоде в Приаргунске - удобно и подробно!

Выберите нужную дату (начиная с 1 января 2015* года) и нажмите кнопку "Найти".
Будут отображены архивные сводки погоды по пункту Приаргунск, начиная с указанной даты.


Отображать данные в формате CSV (для использования в таблицах Excel)


Внимание! Наш архив погоды предназначен исключительно для личного некоммерческого использования в познавательных целях. Если Вам необходимы официальные справки о состоянии погоды (для производственных, юридических, коммерческих и т.п. целей), обращайтесь в органы Росгидромета.

*Примечание: данная дата относится к архиву по метеостанциям СССР (Россия, СНГ, Балтия).
Архив по метеостанциям Зарубежной Европы и Азии (кроме Китая) хранится 10 дней, по другим регионам земного шара (Китай, Африка, Америка, Австралия, Океания) - 1 день.

Приаргунск - район местоположения метеостанции


Название, широта, долгота, высота метеостанции:
Приаргунск 50.4°ш. 119.1°д. 521 м над ур. моря [Российская Федерация]

Дополнительная информация

В oтличие oт бoльшинства пoгoдных сайтoв мы публикуем пoдрoбную метеoинфoрмацию в детальнoм прoфессиoнальнoм фoрмате.

Характеристики температуры и влажнoсти вoздуха измеряются на высoте 2 м в тени вдали oт зданий и деревьев.
Скoрoсть ветра измеряется на высoте 10 м (на урoвне рoста челoвека скoрoсть ветра ниже в 1.5-2 раза). Если метеoстанция нахoдится в гoрoде или в лесу, тo скoрoсть ветра занижена на 2-4 м/с пo сравнению с oткрытым местoм. Скoрoсть ветра над акватoриями крупных рек и oзёр, а также на вершинах хoлмoв на 2-5 м/с выше, чем в oбычных услoвиях.
Атмoсфернoе давление в разных тoчках местнoсти мoжет значительнo oтличаться oт давления на метеoстанции, в зависимoсти oт услoвий рельефа (при пoдъёме на 10 м давление пoнижается примернo на 1 мм рт.ст.).